{"data":{"norad_id":59407,"intl_designator":"2024-064K","name":"STARLINK-31387","alt_names":[],"object_type":"PAYLOAD","status":"ACTIVE","operator":null,"country":"US","launch_date":"2024-04-05","launch_site_code":"AFETR","launch_vehicle":null,"mission":null,"orbit_class":"UNKNOWN","rcs_meters":null,"size_class":null,"mass_kg":null,"dimensions":null,"purposes":["comms"],"wikipedia_slug":null,"has_3d_model":false,"image_url":null,"decayed_at":null,"tle_current":{"epoch":"2026-05-24T20:53:00.422592Z","epoch_age_seconds":86032,"freshness":"FRESH","line1":"1 59407U 24064K   26144.87014378  .00001220  00000+0  53853-4 0  9998","line2":"2 59407  43.0038 346.2018 0001041 273.9112  86.1621 15.27580418120873","mean_motion":15.27580418,"eccentricity":0.0001041,"inclination_deg":43.0038,"raan_deg":346.2018,"arg_perigee_deg":273.9112,"mean_anomaly_deg":86.1621,"bstar":5.3853e-5,"rev_number":12087,"period_min":94.266722918937,"perigee_km":482.33359505526,"apogee_km":483.76209373987,"semimajor_km":6861.1848443976,"source":"CELESTRAK","updated_at":"2026-05-25T13:38:18.940597Z"}}}